Weather in Troitskoye

Russia / Kostroma Oblast     58°12′27″N   45°45′12″E
temp.,
°C
wind,
m/s
gust,
m/s
humid.,
%
clouds,
%
prec.,
mm/h
press.,
hPa
HPBL,
m
4 march, thu
thu400:00−3w4109498 0.4 997649
03:00−4sw3109799 0.6 996428
06:00−3sw41196100 1.0 992685
09:00−2sw4995100 1.4 989643
12:00−1ssw4898100 1.5 986579
15:00−1wnw71284100 3.1 9871279
18:00−4nw61289100 0.4 991955
21:00−8nw41192100 0.4 995583
5 march, fri
fri500:00−12nw389684 0.0 998204
03:00−16nw239544 0.0 100025
06:00−18w22960 0.0 100120
09:00−12wsw369626 0.0 1002251
12:00−7w369099 0.1 1003703
15:00−6wnw4687100 0.3 10041033
18:00−11nw2693100 0.1 1006146
21:00−16nnw239683 0.1 100940
6 march, sat
sat600:00−20nw22973 0.0 101020
03:00−21wnw23981 0.0 101223
06:00−22wnw239942 0.0 101239
09:00−18wnw249658 0.0 1013227
12:00−13wnw358780 0.0 1013650
15:00−12wnw368690 0.1 1012953
18:00−14w2296100 0.1 101154
21:00−17w2297100 0.1 101120
7 march, sun
sun700:00−17sw2298100 0.1 101027
03:00−18ssw239995 0.1 100856
06:00−18s389999 0.0 1006189
09:00−13sse51095100 0.1 1003389
12:00−10s61193100 0.4 1000850
15:00−8s61193100 1.4 996918
18:00−8sse51194100 1.3 993720
21:00−7se4995100 2.2 991582
8 march, mon
mon800:00−7se3896100 0.7 988409
03:00−7ene3696100 1.8 987333
06:00−8nne3795100 0.8 987341
09:00−9n4794100 1.4 989502
12:00−8n4792100 0.6 992736
15:00−9nnw4891100 1.0 996858
18:00−11nnw4993100 0.3 1000634
21:00−13nnw399399 0.3 1004467